Terminal Aerodrome Forecast
Issued by NWS Grand Forks, ND

Home | Current Version | Previous Version | Graphics & Text | Print | Product List | Glossary On
Versions: 1 2 3 4 5 6 7 8 9 10 11 12 13 14 15 16 17 18 19 20 21
000
FTUS43 KFGF 250906 AAA
TAFFAR
TAF AMD
KFAR 250906Z 2509/2606 VRB03KT 4SM BR SKC
      TEMPO 2509/2513 1 1/2SM BR
     FM251400 21010KT P6SM FEW040=

USA.gov is the U.S. government's official web portal to all federal, state and local government web resources and services.